Location: Aboncourt
(47.7710°N, 5.9826°E)
Time: 03:22:25
(UTC+00:00)

Cosmos 1703 - Pass Details

Date: 05 July 2020
Orbit: 525 x 539 km, 82.5° (Epoch: 03 August)

Event Time Altitude Azimuth Distance (km) Brightness Sun altitude
Exits shadow 20:15:26 - 170° (S) 2,458 6.1 -5.8°
Reaches altitude 10° 20:17:10 10° 164° (SSE) 1,763 5.4 -6.1°
Maximum altitude 20:20:49 42° 93° (E) 765 3.7 -6.5°
Drops below altitude 10° 20:24:31 10° 23° (NNE) 1,778 6.2 -6.9°
Sets 20:26:44 0° 16° (NNE) 2,674 7.3 -7.2°
